This is the latest recevied weather packets stored in our database for station/object KC1IUC-13. If no packets are shown the sender has not sent any weather packets the latest 10 day(s).
| Time | Temp. | Humidity | Pressure | Rain* | Wind** | Luminosity | Snow |
|---|---|---|---|---|---|---|---|
| 1777815364 | 11.11° C | 61% | 1006.3 hPa | 0 mm | - | 404 W/m² | - |
| 1777814824 | 11.11° C | 62% | 1006.6 hPa | 0 mm | - | 185 W/m² | - |
| 1777814284 | 11.11° C | 63% | 1006.3 hPa | 0 mm | - | 328 W/m² | - |
| 1777813744 | 10° C | 63% | 1006.3 hPa | 0 mm | - | 373 W/m² | - |
| 1777813204 | 9.44° C | 63% | 1006.6 hPa | 0 mm | - | 74 W/m² | - |
| 1777812844 | 9.44° C | 64% | 1006.6 hPa | 0 mm | - | 98 W/m² | - |
| 1777812303 | 9.44° C | 64% | 1006.3 hPa | 0 mm | - | 66 W/m² | - |
| 1777811764 | 8.89° C | 65% | 1006.3 hPa | 0 mm | - | 88 W/m² | - |
| 1777811224 | 8.89° C | 65% | 1006.6 hPa | 0 mm | - | 62 W/m² | - |
| 1777810684 | 8.89° C | 65% | 1006.6 hPa | 0 mm | - | 56 W/m² | - |
| 1777810144 | 8.89° C | 66% | 1006.3 hPa | 0 mm | - | 67 W/m² | - |
| 1777809604 | 8.33° C | 66% | 1006.3 hPa | 0 mm | - | 109 W/m² | - |
| 1777809244 | 8.33° C | 66% | 1006.3 hPa | 0 mm | - | 85 W/m² | - |
| 1777808704 | 7.78° C | 66% | 1006.3 hPa | 0 mm | - | 74 W/m² | - |
| 1777808164 | 7.78° C | 66% | 1006.3 hPa | 0 mm | - | 55 W/m² | - |
| 1777807624 | 8.89° C | 66% | 1005.9 hPa | 0 mm | - | 25 W/m² | - |
| 1777807084 | 8.33° C | 67% | 1006.3 hPa | 0 mm | - | 38 W/m² | - |
| 1777806544 | 7.78° C | 68% | 1005.9 hPa | 0 mm | - | 28 W/m² | - |
| 1777806004 | 6.11° C | 68% | 1006.3 hPa | 0 mm | - | 21 W/m² | - |
| 1777805644 | 5.56° C | 68% | 1005.9 hPa | 0 mm | - | 19 W/m² | - |
| 1777805104 | 4.44° C | 68% | 1006.3 hPa | 0 mm | - | 17 W/m² | - |
| 1777804564 | 3.89° C | 68% | 1005.9 hPa | 0 mm | - | 14 W/m² | - |
| 1777804024 | 3.89° C | 68% | 1005.9 hPa | 0 mm | - | 12 W/m² | - |
| 1777803484 | 3.33° C | 67% | 1005.9 hPa | 0 mm | - | 9 W/m² | - |
| 1777802944 | 3.33° C | 67% | 1005.9 hPa | 0 mm | - | 6 W/m² | - |
* Rain latest hour (hover to see other rain measurements)
** Current wind speed in m/s (hover to see current wind gust speed)